Lid_Strength_Index
7 10 12 10 9 9 10 11 12 10 8 9 10 10 9 7 7 7 7 6 5 4 3 2 2 1 1 1 1 1 1 0 0 1 1 1 2 3 4 6 6 8 7 9
9 12 9 8 9 10 11 12 12 10 9 10 11 11 10 9 8 7 7 7 6 5 4 3 2 2 1 2 1 1 1 1 1 1 1 1 2 5 7 8 7 9 10 11
11 10 9 9 10 11 12 13 13 12 10 10 11 12 10 9 8 8 7 7 6 6 6 4 3 2 2 2 1 1 1 1 1 0 0 2 7 10 11 11 10 10 11 11
10 8 10 10 11 10 13 10 11 12 13 16 11 16 12 10 9 8 8 7 7 6 5 5 4 3 2 2 1 1 1 1 1 0 1 3 5 9 8 9 11 11 11 11
11 11 11 12 11 10 12 10 11 11 13 14 13 16 13 11 11 9 8 7 6 6 6 6 5 4 3 1 1 1 1 1 1 1 1 2 5 6 8 10 11 12 12 10
10 8 10 10 9 10 10 11 11 11 13 18 14 15 14 11 10 9 8 7 6 6 5 5 4 4 3 1 1 1 1 1 1 1 2 3 5 9 11 12 13 14 12 10
11 11 9 9 11 10 11 14 17 19 19 18 12 14 13 10 9 8 8 8 7 5 6 6 5 4 3 2 2 2 2 2 2 1 3 4 8 8 10 11 13 13 12 11
15 16 10 9 10 12 12 12 16 20 18 15 12 15 12 8 7 7 7 6 5 5 4 6 5 4 3 2 2 2 2 3 2 2 4 7 9 9 11 13 14 12 11 10
15 15 10 9 8 9 13 15 10 16 14 18 14 12 9 8 7 7 6 6 5 5 4 5 5 4 3 3 2 2 2 3 3 3 6 10 12 12 13 13 12 11 11 11
11 15 11 10 8 9 11 10 16 16 20 20 15 14 14 10 9 8 7 7 6 5 5 5 5 4 3 2 2 2 2 4 3 4 6 10 13 13 13 13 13 12 11 11
10 13 13 11 12 13 13 14 14 13 15 18 18 14 9 10 8 8 7 6 6 6 5 5 5 4 3 2 2 3 3 4 5 6 9 11 13 14 12 12 12 11 11 11
10 12 16 14 11 10 11 13 13 17 17 16 16 16 7 7 7 7 6 6 5 5 5 5 4 3 3 3 3 4 5 6 7 9 10 13 14 14 13 13 11 11 12 12
9 13 17 15 13 12 14 13 12 12 13 17 19 15 8 7 7 6 6 6 5 5 5 5 5 5 4 4 4 5 7 9 10 11 13 14 14 12 12 12 12 12 12 11
8 12 15 17 15 12 15 13 13 14 17 15 15 13 10 8 8 7 6 5 5 6 5 6 6 5 5 5 6 7 10 12 12 14 14 14 13 12 12 13 13 13 12 12
9 15 14 14 13 13 14 14 13 15 14 17 13 12 10 8 7 7 6 6 6 6 6 8 7 7 6 8 9 11 13 14 14 14 14 13 12 12 13 13 13 13 12 12
10 15 14 16 13 13 14 13 13 13 13 14 13 13 8 7 6 7 6 7 7 7 6 7 7 8 8 10 12 14 15 15 14 14 14 14 13 13 14 14 13 13 13 13
12 14 15 17 13 13 17 14 14 13 12 12 15 11 8 8 8 8 8 7 7 6 6 7 8 8 10 12 14 15 15 14 14 14 14 14 14 14 14 13 13 13 13 13
12 13 15 17 15 20 14 10 11 12 11 11 11 10 9 9 8 8 7 7 7 7 6 8 8 11 12 13 14 14 14 14 14 14 14 15 14 14 14 14 14 14 13 14
10 12 15 17 18 14 12 11 12 13 13 10 10 10 9 9 9 9 9 9 8 7 7 9 10 13 13 13 14 14 14 14 14 14 14 14 14 14 14 14 14 14 14 15
11 11 14 15 19 19 13 11 9 9 15 10 10 10 10 10 12 11 11 8 8 8 9 10 11 11 12 13 12 13 13 14 14 14 14 14 14 14 14 14 14 15 15 15
14 13 16 16 17 14 10 10 8 14 13 10 10 9 10 10 10 11 10 10 9 10 12 12 12 12 13 13 13 14 14 14 14 14 14 14 14 14 15 15 15 15 15 14
14 14 15 15 17 18 9 9 12 9 9 10 10 9 10 10 12 12 12 12 11 12 13 13 14 14 14 13 13 14 15 15 15 15 15 15 15 15 15 15 15 14 14 15
14 11 12 12 12 8 8 8 7 8 9 9 10 9 9 11 12 13 13 13 13 13 13 12 13 14 13 13 14 16 16 15 16 16 16 16 15 15 14 14 14 14 15 15
10 9 11 11 8 8 7 8 8 9 10 10 10 9 9 11 12 13 13 14 14 14 14 14 14 14 15 14 15 16 16 15 16 16 15 14 14 15 14 14 14 15 15 15
9 9 10 10 8 7 8 8 9 10 10 11 11 10 10 12 12 13 14 14 14 15 14 14 15 15 15 15 16 16 16 15 15 14 14 14 15 15 15 15 15 14 14 14
8 9 10 10 7 8 8 9 9 10 11 11 12 12 12 12 13 13 14 14 14 15 15 15 15 16 16 16 16 15 14 14 14 15 15 15 15 15 15 15 15 15 15 14